Zurück zum Katalog

CZ-6A DEB

AktivPO
NORAD 60788·DEBRIS·🇨🇳 China

Gestartet Aug 6, 2024 von Taiyuan Satellite Launch Center

Loading…

Nächste Überflüge (nächste 24 Stunden)

TLE

AktuellSource: Space-Track

Epoche: Sep 14, 2026, 00:11 UTC

1 60788U 24140FP  26257.00770403  .00001114  00000-0  48805-3 0  9998
2 60788  88.9506 260.3694 0039375 264.1999  95.4703 14.22675284106178

Verfolge CZ-6A DEB in Echtzeit mit AllMySat

Download on the App Store